"Pseudo-MPEC" for 1965-058B = NORAD 01459 = Vela 3B

Created 2018 Mar 9 16:02:38 UT using Find_Orb

Click here for an explanation of pseudo-MPECs

 
 Astrometry: 
1965-058B    tC2017 02 20.03500 08 19 58.64 +10 31 21.0          16.3 RqD0555Y00
1965-058B    tC2017 02 20.03619 08 20 12.44 +10 31 38.7          16.3 RqD0555Y00
1965-058B    tC2017 02 20.03742 08 20 26.71 +10 31 59.4          16.5 RqD0555Y00
1965-058B     C2017 11 27.47849 10 33 23.01 +12 20 40.2          16.5 GUNEOCP703
1965-058B     C2017 11 27.48344 10 34 02.30 +12 20 19.2          17.3 GUNEOCP703
1965-058B     C2017 11 27.48842 10 34 41.82 +12 20 00.5          16.5 GUNEOCP703
1965-058B     C2017 11 27.49337 10 35 20.79 +12 19 36.3                UNEOCP703
1965-058B     C2017 11 27.54973 10 42 24.65 +12 13 03.0          18.1 GUNEOCPI52

Station data:
(703) Catalina Sky Survey  (N32.417006 W110.732640)  US/Arizona.  Observer R.
   G. Matheny. Measurers E. J. Christensen, D. C. Fuls, A. R. Gibbs, A. D.
   Grauer, J. A. Johnson, R. A. Kowalski, S. M. Larson, G. J. Leonard, R. G.
   Matheny, R. L. Seaman, F. C. Shelly. 0.68-m Schmidt + 10K CCD.
(I52) Steward Observatory, Mt. Lemmon Station  (N32.442547 W110.788920)
   US/Arizona.  Observer R. A. Kowalski. Measurers E. J. Christensen, D. C.
   Fuls, A. R. Gibbs, A. D. Grauer, J. A. Johnson, R. A. Kowalski, S. M.
   Larson, G. J. Leonard, R. G. Matheny, R. L. Seaman, F. C. Shelly. 1.0-m
   reflector + CCD.
(Y00) SONEAR Observatory, Oliveira  (S20.715082 W44.784960)  Brazil.
   Observers C. Jacques, E. Pimentel, J. Barros. Measurer C. Jacques. 0.28-m
   f/2.2 astrograph + CCD.

Orbital elements:  1965-058B = NORAD 01459 = Vela 3B
   Perigee 2017 Nov 26.199382 +/- 0.00156 TT =  4:47:06 (JD 2458083.699382)
Epoch 2017 Nov 28.0 TT = JDT 2458085.5                        Gray
M 139.03030 +/- 0.11                (J2000 equator)
n  77.21252858 +/- 0.000197         Peri.  320.66939 +/- 0.040
a117890.367 +/- 0.2                 Node    52.79890 +/- 0.0052
e   0.4755851 +/- 0.000494          Incl.   13.66727 +/- 0.006
P6713.81m/4.662d           H 30.1   G  0.15   U  7.1
q 61823.4628 +/- 58.4    Q 173957.272 +/- 58
From 8 observations 2017 Feb. 20-Nov. 27; mean residual 0".977
Residuals in arcseconds: 
170220 Y00 .408+ .484+    171127 703 2.51+ .233+    171127 703 .037+ .017+
170220 Y00 .148- .842-    171127 703 1.75- 1.38-    171127 I52 .157+ .064-
170220 Y00 .276- .357+    171127 703 1.03- 1.23+

Ephemerides (geocentric):
Date (UTC) HH   RA              Dec         delta   r     elong  mag " sig PA
---- -- -- --  ------------   ------------  ------ ------ -----  --- ---- ---
2017 11 27 00  08 43 05.925   +13 22 29.49  117053 .98711 115.0 16.9 63.1  97
2017 11 27 01  08 54 34.919   +13 29 47.21  120179 .98708 112.4 17.0 51.1  99
2017 11 27 02  09 05 29.999   +13 34 54.14  123220 .98704 109.9 17.1 40.7 101
2017 11 27 03  09 15 54.333   +13 38 07.11  126172 .98701 107.6 17.3 31.9 104
2017 11 27 04  09 25 50.738   +13 39 40.46  129034 .98698 105.4 17.4 24.3 107
2017 11 27 05  09 35 21.719   +13 39 46.40  131805 .98694 103.2 17.5 18.0 111
2017 11 27 06  09 44 29.517   +13 38 35.39  134485 .98691 101.2 17.6 12.6 116
2017 11 27 07  09 53 16.134   +13 36 16.36  137074 .98687  99.2 17.7  8.2 125
2017 11 27 08  10 01 43.368   +13 32 56.99  139570 .98684  97.3 17.8  4.8 144
2017 11 27 09  10 09 52.838   +13 28 43.87  141975 .98680  95.4 17.9  3.0   7
2017 11 27 10  10 17 46.003   +13 23 42.69  144288 .98676  93.6 18.0  3.6  54
2017 11 27 11  10 25 24.184   +13 17 58.34  146510 .98673  91.9 18.1  5.1  76
2017 11 27 12  10 32 48.581   +13 11 35.05  148641 .98669  90.2 18.2  6.5  87
2017 11 27 13  10 40 00.282   +13 04 36.48  150682 .98666  88.6 18.3  7.6  93
2017 11 27 14  10 47 00.285   +12 57 05.81  152633 .98662  87.0 18.4  8.4  99
2017 11 27 15  10 53 49.500   +12 49 05.78  154495 .98658  85.5 18.5  8.9 103
2017 11 27 16  11 00 28.763   +12 40 38.77  156269 .98655  84.0 18.6  9.1 107
2017 11 27 17  11 06 58.842   +12 31 46.84  157955 .98651  82.5 18.7  9.1 112
2017 11 27 18  11 13 20.450   +12 22 31.78  159553 .98648  81.1 18.8  8.8 117
2017 11 27 19  11 19 34.243   +12 12 55.12  161065 .98644  79.7 18.9  8.4 123
2017 11 27 20  11 25 40.831   +12 02 58.20  162491 .98641  78.3 19.0  7.9 130
2017 11 27 21  11 31 40.784   +11 52 42.16  163830 .98637  76.9 19.1  7.4 139
2017 11 27 22  11 37 34.632   +11 42 07.97  165085 .98634  75.6 19.2  6.9 151
2017 11 27 23  11 43 22.874   +11 31 16.46  166255 .98630  74.3 19.2  6.6 165
2017 11 28 00  11 49 05.978   +11 20 08.33  167341 .98627  73.0 19.3  6.7   0
2017 11 28 01  11 54 44.386   +11 08 44.15  168343 .98624  71.7 19.4  7.2  16
2017 11 28 02  12 00 18.515   +10 57 04.40  169262 .98620  70.4 19.5  8.3  30
2017 11 28 03  12 05 48.763   +10 45 09.46  170098 .98617  69.2 19.6  9.8  42
2017 11 28 04  12 11 15.509   +10 32 59.61  170851 .98614  67.9 19.7 11.6  50
2017 11 28 05  12 16 39.115   +10 20 35.06  171522 .98611  66.7 19.8 13.7  57
2017 11 28 06  12 21 59.928   +10 07 55.95  172111 .98608  65.5 19.8 16.1  62
2017 11 28 07  12 27 18.285   +09 55 02.33  172618 .98604  64.3 19.9 18.7  67
2017 11 28 08  12 32 34.511   +09 41 54.22  173044 .98601  63.1 20.0 21.5  70
2017 11 28 09  12 37 48.921   +09 28 31.53  173388 .98598  61.9 20.1 24.4  73
2017 11 28 10  12 43 01.825   +09 14 54.16  173652 .98596  60.7 20.2 27.5  75
2017 11 28 11  12 48 13.525   +09 01 01.93  173834 .98593  59.6 20?? 30.8  77
2017 11 28 12  12 53 24.318   +08 46 54.61  173935 .98590  58.4 20?? 34.3  79
2017 11 28 13  12 58 34.501   +08 32 31.91  173955 .98587  57.2 20?? 37.9  81
2017 11 28 14  13 03 44.367   +08 17 53.50  173894 .98584  56.1 20?? 41.6  82
2017 11 28 15  13 08 54.208   +08 02 58.99  173752 .98582  54.9 20?? 45.6  84
2017 11 28 16  13 14 04.318   +07 47 47.95  173529 .98579  53.7 20?? 49.7  85
2017 11 28 17  13 19 14.995   +07 32 19.87  173225 .98577  52.6 20?? 53.9  86
2017 11 28 18  13 24 26.537   +07 16 34.22  172840 .98574  51.4 21?? 58.4  87
2017 11 28 19  13 29 39.250   +07 00 30.40  172374 .98572  50.2 21?? 63.0  88
2017 11 28 20  13 34 53.446   +06 44 07.75  171826 .98570  49.0 21?? 67.8  89
2017 11 28 21  13 40 09.447   +06 27 25.56  171196 .98567  47.9 21?? 72.9  89
2017 11 28 22  13 45 27.581   +06 10 23.07  170484 .98565  46.7 21?? 78.1  90
2017 11 28 23  13 50 48.192   +05 52 59.43  169690 .98563  45.5 21?? 83.5  91
2017 11 29 00  13 56 11.636   +05 35 13.74  168813 .98561  44.3 21?? 89.2  91
2017 11 29 01  14 01 38.285   +05 17 05.04  167853 .98559  43.1 21?? 95.1  92
2017 11 29 02  14 07 08.530   +04 58 32.29  166809 .98557  41.9 21??  101  93
2017 11 29 03  14 12 42.783   +04 39 34.37  165682 .98556  40.7 22??  108  93
2017 11 29 04  14 18 21.478   +04 20 10.07  164471 .98554  39.4 22??  114  94
2017 11 29 05  14 24 05.077   +04 00 18.12  163175 .98553  38.2 22??  122  94
2017 11 29 06  14 29 54.074   +03 39 57.12  161794 .98551  36.9 22??  129  95
2017 11 29 07  14 35 48.995   +03 19 05.61  160326 .98550  35.7 22??  137  95
2017 11 29 08  14 41 50.406   +02 57 42.01  158773 .98549  34.4 22??  145  95
2017 11 29 09  14 47 58.918   +02 35 44.63  157133 .98547  33.1 23??  153  96
2017 11 29 10  14 54 15.190   +02 13 11.66  155405 .98546  31.9 23??  162  96
2017 11 29 11  15 00 39.938   +01 50 01.18  153589 .98546  30.6 23??  172  97